Portada
METAR-TAF:

METAR-TAF

Aeroports :

Harrisburg-Raleigh Airport

Harrisburg, Illinois, Estats Units d'Amèrica

latitud: 37-48-41N, longitud: 088-32-57W, altitud: 121 m

Observació

L'informe es va fer fa 24 minuts, a les 20:35 UTC
Vent 7 kt del Sud/Sud-Oest
Temperatura 29°C
Humitat 74%
Pressió 1016 hPa
Visibilitat: 16.1 km
Núvols disperses a una alçada de 3600 ft
Núvols disperses a una alçada de 4200 ft
Núvols disperses a una alçada de 5000 ft

METAR: KHSB 172035Z AUTO 21007KT 10SM SCT036 SCT042 SCT050 29/24 A3001 RMK AO2 LTG DSNT SW AND W T02940239

Hora: 15:59 (20:59 UTC)


TAF: manca

Observacions i pronòstics meteorològics de més de 4000 aeroports (METAR i TAF).

Les estacions disponibles són els punts grocs i vermells al mapa.

Posi el ratolí al punt desitjat per veure el nom de l'estació.

Feu clic per veure les observacions i els pronòstics meteorològics.

Per canviar el mapa: feu clic els botons verds amb una creu de color negre per apropar; al botó verd amb un guió per allunyar la imatge; o en les fletxes verdes per a mapes adjacents.


METAR-TAF: